JLY7695 SBCF-SBEG

Flight info

Callsign JLY7695
Flight time N/A
Altitude 34000
Route GIMPO UZ33 UGUGA UM409 UDOMA DCT PAMEB DCT IRUMO
Aircraft B738/M-SDE2E3FGHIRWXY/LB1

Departure

Time 2026-05-05 10:26
Airport Tancredo Neves International Airport (SBCF)

Arrival

Time N/A
Airport Eduardo Gomes International Airport (SBEG)
Time Latitude Longitude Altitude Speed Heading
2026-05-05 09:56 -19.62842 -43.96836 2809 ft 0 kts 76°
2026-05-05 10:13 -19.62842 -43.96837 2809 ft 2 kts 76°
2026-05-05 10:14 -19.62849 -43.96855 2815 ft 4 kts
2026-05-05 10:14 -19.62868 -43.96846 2812 ft 4 kts 317°
2026-05-05 10:14 -19.62871 -43.96842 2813 ft 0 kts 316°
2026-05-05 10:18 -19.62860 -43.96855 2814 ft 5 kts 310°
2026-05-05 10:18 -19.62842 -43.96891 2812 ft 6 kts 289°
2026-05-05 10:19 -19.62829 -43.96930 2814 ft 6 kts 288°
2026-05-05 10:19 -19.62817 -43.96969 2809 ft 5 kts 288°
2026-05-05 10:19 -19.62805 -43.97007 2809 ft 5 kts 288°
2026-05-05 10:19 -19.62805 -43.97045 2809 ft 5 kts 252°
2026-05-05 10:20 -19.62821 -43.97080 2813 ft 5 kts 239°
2026-05-05 10:20 -19.62837 -43.97115 2813 ft 5 kts 259°
2026-05-05 10:20 -19.62824 -43.97150 2811 ft 6 kts 313°
2026-05-05 10:20 -19.62787 -43.97186 2807 ft 9 kts 317°
2026-05-05 10:21 -19.62726 -43.97245 2802 ft 14 kts 318°
2026-05-05 10:21 -19.62641 -43.97325 2804 ft 18 kts 319°
2026-05-05 10:21 -19.62545 -43.97414 2807 ft 18 kts 319°
2026-05-05 10:21 -19.62454 -43.97498 2805 ft 17 kts 319°
2026-05-05 10:22 -19.62368 -43.97578 2801 ft 15 kts 319°
2026-05-05 10:22 -19.62297 -43.97643 2806 ft 13 kts 319°
2026-05-05 10:22 -19.62240 -43.97700 2804 ft 8 kts 302°
2026-05-05 10:22 -19.62248 -43.97752 2798 ft 7 kts 231°
2026-05-05 10:23 -19.62251 -43.97756 2800 ft 0 kts 229°
2026-05-05 10:24 -19.62270 -43.97774 2806 ft 5 kts 214°
2026-05-05 10:24 -19.62307 -43.97785 2806 ft 6 kts 189°
2026-05-05 10:24 -19.62345 -43.97792 2805 ft 6 kts 189°
2026-05-05 10:24 -19.62383 -43.97786 2803 ft 6 kts 151°
2026-05-05 10:25 -19.62485 -43.97695 2800 ft 46 kts 138°
2026-05-05 10:25 -19.62894 -43.97317 2808 ft 108 kts 139°
2026-05-05 10:25 -19.63602 -43.96660 2811 ft 160 kts 139°
2026-05-05 10:25 -19.64516 -43.95808 3108 ft 183 kts 139°
2026-05-05 10:26 -19.65491 -43.94910 3816 ft 189 kts 137°
2026-05-05 10:26 -19.66489 -43.93995 4545 ft 191 kts 138°
2026-05-05 10:26 -19.67493 -43.93067 5265 ft 192 kts 137°
2026-05-05 10:26 -19.68511 -43.92150 5932 ft 192 kts 145°
2026-05-05 10:27 -19.69781 -43.91729 6540 ft 196 kts 178°
2026-05-05 10:27 -19.71125 -43.91982 7113 ft 199 kts 202°
2026-05-05 10:27 -19.72292 -43.92779 7664 ft 202 kts 224°
2026-05-05 10:27 -19.73172 -43.93951 8195 ft 207 kts 234°
2026-05-05 10:28 -19.73939 -43.95332 8335 ft 228 kts 251°
2026-05-05 10:28 -19.73960 -43.97042 8490 ft 243 kts 291°
2026-05-05 10:28 -19.72919 -43.98449 8765 ft 251 kts 330°
2026-05-05 10:28 -19.71280 -43.99155 9155 ft 259 kts 343°
2026-05-05 10:29 -19.69553 -43.99742 9802 ft 260 kts 344°
2026-05-05 10:29 -19.67840 -44.00336 10508 ft 259 kts 343°
2026-05-05 10:29 -19.66119 -44.00952 11069 ft 263 kts 342°
2026-05-05 10:29 -19.64377 -44.01593 11627 ft 267 kts 341°
2026-05-05 10:30 -19.62618 -44.02253 12199 ft 269 kts 340°
2026-05-05 10:30 -19.60843 -44.02927 12751 ft 273 kts 340°
2026-05-05 10:30 -19.59044 -44.03615 13315 ft 276 kts 339°
2026-05-05 10:30 -19.57230 -44.04310 13903 ft 278 kts 339°
2026-05-05 10:31 -19.55401 -44.05006 14426 ft 282 kts 339°
2026-05-05 10:31 -19.53490 -44.05689 14608 ft 299 kts 340°
2026-05-05 10:31 -19.51451 -44.06400 14698 ft 318 kts 340°
2026-05-05 10:31 -19.49361 -44.07128 14825 ft 336 kts 340°
2026-05-05 10:32 -19.47084 -44.07926 14957 ft 353 kts 340°
2026-05-05 10:32 -19.44696 -44.08763 15063 ft 370 kts 340°
2026-05-05 10:32 -19.42204 -44.09652 15168 ft 385 kts 339°
2026-05-05 10:32 -19.39636 -44.10593 15394 ft 395 kts 339°
2026-05-05 10:33 -19.37057 -44.11546 15795 ft 399 kts 339°
2026-05-05 10:33 -19.34429 -44.12513 16287 ft 401 kts 339°
2026-05-05 10:33 -19.31786 -44.13483 16739 ft 403 kts 339°
2026-05-05 10:33 -19.29127 -44.14462 17173 ft 406 kts 337°
2026-05-05 10:34 -19.26659 -44.15883 17548 ft 404 kts 317°
2026-05-05 10:34 -19.24636 -44.17924 18048 ft 403 kts 313°
2026-05-05 10:34 -19.22612 -44.19989 18508 ft 405 kts 314°
2026-05-05 10:34 -19.20566 -44.22049 18916 ft 407 kts 314°
2026-05-05 10:35 -19.18503 -44.24107 19285 ft 409 kts 314°
2026-05-05 10:35 -19.16419 -44.26175 19639 ft 412 kts 314°
2026-05-05 10:35 -19.14323 -44.28250 20009 ft 414 kts 314°
2026-05-05 10:35 -19.12217 -44.30331 20387 ft 416 kts 314°
2026-05-05 10:36 -19.10315 -44.32211 20714 ft 417 kts 314°
2026-05-05 10:36 -19.10245 -44.32281 20727 ft 418 kts 314°
2026-05-05 10:36 -19.07393 -44.35099 21219 ft 420 kts 314°
2026-05-05 10:37 -19.05256 -44.37211 21576 ft 422 kts 314°
2026-05-05 10:37 -19.03834 -44.38616 21800 ft 423 kts 314°
2026-05-05 10:37 -19.01091 -44.41324 22238 ft 426 kts 314°
2026-05-05 10:37 -18.99655 -44.42741 22457 ft 427 kts 313°
2026-05-05 10:38 -18.97484 -44.44903 22763 ft 430 kts 313°
2026-05-05 10:38 -18.95315 -44.47079 23084 ft 432 kts 313°
2026-05-05 10:38 -18.93133 -44.49274 23410 ft 433 kts 313°
2026-05-05 10:38 -18.90947 -44.51473 23730 ft 435 kts 313°
2026-05-05 10:39 -18.88751 -44.53681 23988 ft 437 kts 313°
2026-05-05 10:39 -18.86543 -44.55899 24243 ft 439 kts 313°
2026-05-05 10:39 -18.84330 -44.58119 24511 ft 440 kts 313°
2026-05-05 10:39 -18.82105 -44.60348 24777 ft 441 kts 313°
2026-05-05 10:40 -18.79874 -44.62583 25027 ft 443 kts 313°
2026-05-05 10:40 -18.77635 -44.64825 25263 ft 445 kts 313°
2026-05-05 10:40 -18.75388 -44.67074 25518 ft 446 kts 313°
2026-05-05 10:40 -18.73135 -44.69329 25782 ft 447 kts 313°
2026-05-05 10:41 -18.70875 -44.71589 26048 ft 449 kts 313°
2026-05-05 10:41 -18.68606 -44.73857 26303 ft 450 kts 313°
2026-05-05 10:41 -18.67098 -44.75364 26458 ft 451 kts 313°
2026-05-05 10:42 -18.59021 -44.83429 27261 ft 457 kts 313°
2026-05-05 10:42 -18.56709 -44.85737 27489 ft 458 kts 313°
2026-05-05 10:42 -18.54393 -44.88046 27741 ft 459 kts 313°
2026-05-05 10:43 -18.52074 -44.90358 27986 ft 460 kts 313°
2026-05-05 10:43 -18.49748 -44.92676 28192 ft 461 kts 313°
2026-05-05 10:43 -18.47412 -44.95003 28403 ft 463 kts 313°
2026-05-05 10:43 -18.45070 -44.97335 28613 ft 464 kts 313°
2026-05-05 10:44 -18.42721 -44.99674 28816 ft 465 kts 313°
2026-05-05 10:44 -18.40366 -45.02017 29014 ft 466 kts 313°
2026-05-05 10:44 -18.38035 -45.04334 29265 ft 466 kts 313°
2026-05-05 10:44 -18.35682 -45.06673 29596 ft 465 kts 313°
2026-05-05 10:45 -18.33334 -45.09005 29962 ft 463 kts 313°
2026-05-05 10:45 -18.30996 -45.11327 30283 ft 461 kts 312°
2026-05-05 10:45 -18.28664 -45.13643 30527 ft 461 kts 313°
2026-05-05 10:45 -18.26331 -45.15959 30759 ft 461 kts 313°
2026-05-05 10:46 -18.24004 -45.18268 31030 ft 460 kts 313°
2026-05-05 10:46 -18.21682 -45.20572 31302 ft 458 kts 313°
2026-05-05 10:46 -18.19358 -45.22876 31537 ft 458 kts 313°
2026-05-05 10:46 -18.17037 -45.25177 31769 ft 458 kts 312°
2026-05-05 10:47 -18.14721 -45.27472 32037 ft 457 kts 312°
2026-05-05 10:47 -18.12408 -45.29764 32315 ft 456 kts 312°
2026-05-05 10:47 -18.10132 -45.32017 32559 ft 455 kts 312°
2026-05-05 10:47 -18.07797 -45.34330 32765 ft 456 kts 312°
2026-05-05 10:48 -18.05490 -45.36612 33002 ft 455 kts 312°
2026-05-05 10:48 -18.03218 -45.38857 33271 ft 454 kts 312°
2026-05-05 10:48 -18.00921 -45.41126 33495 ft 453 kts 312°
2026-05-05 10:48 -17.98621 -45.43398 33687 ft 454 kts 312°
2026-05-05 10:49 -17.96322 -45.45667 33919 ft 453 kts 312°
2026-05-05 10:49 -17.94029 -45.47930 34170 ft 452 kts 312°
2026-05-05 10:49 -17.91728 -45.50202 34182 ft 456 kts 312°
2026-05-05 10:50 -17.87110 -45.54759 34200 ft 455 kts 312°
2026-05-05 10:50 -17.82517 -45.59285 34201 ft 451 kts 312°
2026-05-05 10:51 -17.77958 -45.63774 34201 ft 449 kts 311°
2026-05-05 10:51 -17.73409 -45.68253 34205 ft 448 kts 311°
2026-05-05 10:52 -17.68863 -45.72726 34200 ft 448 kts 311°
2026-05-05 10:52 -17.64304 -45.77209 34208 ft 450 kts 311°
2026-05-05 10:53 -17.59714 -45.81717 34206 ft 453 kts 311°
2026-05-05 10:53 -17.55094 -45.86253 34209 ft 457 kts 311°
2026-05-05 10:54 -17.50433 -45.90823 34197 ft 460 kts 311°
2026-05-05 10:54 -17.45782 -45.95380 34198 ft 462 kts 311°
2026-05-05 10:55 -17.41052 -46.00013 34192 ft 463 kts 311°
2026-05-05 10:55 -17.36372 -46.04592 34195 ft 464 kts 311°
2026-05-05 10:56 -17.31658 -46.09202 34204 ft 464 kts 311°
2026-05-05 10:56 -17.29297 -46.11511 34366 ft 464 kts 311°
2026-05-05 10:56 -17.26941 -46.13812 34615 ft 462 kts 311°
2026-05-05 10:56 -17.24595 -46.16102 34863 ft 460 kts 311°
2026-05-05 10:57 -17.22263 -46.18377 35076 ft 458 kts 311°
2026-05-05 10:57 -17.19931 -46.20655 35195 ft 459 kts 310°
2026-05-05 10:57 -17.17590 -46.22941 35317 ft 460 kts 310°
2026-05-05 10:57 -17.16042 -46.24452 35420 ft 460 kts 310°
2026-05-05 10:58 -17.13707 -46.26729 35598 ft 459 kts 310°
2026-05-05 10:58 -17.11370 -46.29008 35717 ft 460 kts 310°
2026-05-05 10:58 -17.09029 -46.31289 35813 ft 461 kts 310°
2026-05-05 10:58 -17.06684 -46.33575 35960 ft 461 kts 310°
2026-05-05 10:59 -17.04344 -46.35853 36135 ft 459 kts 310°
2026-05-05 10:59 -16.99651 -46.40422 36186 ft 462 kts 310°
2026-05-05 11:00 -16.94947 -46.44997 36184 ft 461 kts 310°
2026-05-05 11:00 -16.90262 -46.49549 36181 ft 459 kts 310°
2026-05-05 11:01 -16.85596 -46.54083 36184 ft 458 kts 310°
2026-05-05 11:01 -16.81303 -46.58878 36191 ft 444 kts 297°
2026-05-05 11:02 -16.77872 -46.64229 36196 ft 443 kts 296°
2026-05-05 11:02 -16.74458 -46.69598 36195 ft 445 kts 296°
2026-05-05 11:03 -16.70990 -46.74976 36183 ft 447 kts 297°
2026-05-05 11:03 -16.67494 -46.80354 36192 ft 449 kts 297°
2026-05-05 11:04 -16.63984 -46.85740 36199 ft 450 kts 297°
2026-05-05 11:04 -16.60457 -46.91150 36195 ft 451 kts 297°
2026-05-05 11:05 -16.56926 -46.96567 36189 ft 452 kts 297°
2026-05-05 11:05 -16.53388 -47.01987 36182 ft 452 kts 296°
2026-05-05 11:06 -16.49847 -47.07406 36189 ft 452 kts 296°
2026-05-05 11:06 -16.46309 -47.12819 36199 ft 452 kts 296°
2026-05-05 11:07 -16.42842 -47.18123 36201 ft 451 kts 296°
2026-05-05 11:07 -16.39299 -47.23519 36195 ft 452 kts 297°
2026-05-05 11:08 -16.35078 -47.28419 36198 ft 461 kts 307°
2026-05-05 11:08 -16.30495 -47.33097 36207 ft 461 kts 307°
2026-05-05 11:09 -16.25930 -47.37789 36199 ft 460 kts 307°
2026-05-05 11:09 -16.21410 -47.42498 36205 ft 459 kts 307°
2026-05-05 11:10 -16.16903 -47.47214 36198 ft 459 kts 307°
2026-05-05 11:10 -16.12400 -47.51924 36208 ft 459 kts 307°
2026-05-05 11:11 -16.07890 -47.56636 36205 ft 460 kts 307°
2026-05-05 11:11 -16.03376 -47.61347 36204 ft 461 kts 307°
2026-05-05 11:12 -15.98852 -47.66065 36204 ft 461 kts 307°
2026-05-05 11:12 -15.94317 -47.70792 36194 ft 462 kts 307°
2026-05-05 11:13 -15.89802 -47.75495 36206 ft 462 kts 307°
2026-05-05 11:13 -15.85228 -47.80257 36192 ft 463 kts 307°
2026-05-05 11:13 -15.82983 -47.82594 36295 ft 463 kts 307°
2026-05-05 11:14 -15.80680 -47.84997 36302 ft 463 kts 307°
2026-05-05 11:14 -15.76163 -47.89711 36281 ft 463 kts 307°
2026-05-05 11:15 -15.71618 -47.94451 36263 ft 463 kts 308°
2026-05-05 11:15 -15.67072 -47.99189 36251 ft 463 kts 308°
2026-05-05 11:16 -15.62524 -48.03926 36228 ft 463 kts 308°
2026-05-05 11:16 -15.57976 -48.08660 36197 ft 463 kts 308°
2026-05-05 11:17 -15.53430 -48.13389 36169 ft 463 kts 308°
2026-05-05 11:17 -15.48887 -48.18111 36186 ft 462 kts 308°
2026-05-05 11:18 -15.44208 -48.22705 36168 ft 464 kts 311°
2026-05-05 11:18 -15.39421 -48.27198 36169 ft 464 kts 311°
2026-05-05 11:19 -15.34648 -48.31704 36160 ft 463 kts 311°
2026-05-05 11:19 -15.29901 -48.36221 36157 ft 463 kts 311°
2026-05-05 11:20 -15.25159 -48.40743 36152 ft 463 kts 311°
2026-05-05 11:20 -15.20419 -48.45260 36157 ft 463 kts 311°
2026-05-05 11:21 -15.15673 -48.49778 36150 ft 463 kts 311°
2026-05-05 11:21 -15.10958 -48.54263 36153 ft 463 kts 311°
2026-05-05 11:22 -15.06212 -48.58776 36135 ft 463 kts 311°
2026-05-05 11:22 -15.01461 -48.63287 36143 ft 463 kts 311°
2026-05-05 11:23 -14.96687 -48.67770 36141 ft 463 kts 311°
2026-05-05 11:23 -14.91903 -48.72244 36137 ft 463 kts 311°
2026-05-05 11:24 -14.87134 -48.76706 36121 ft 463 kts 312°
2026-05-05 11:24 -14.82359 -48.81176 36126 ft 462 kts 312°
2026-05-05 11:25 -14.77596 -48.85634 36120 ft 462 kts 312°
2026-05-05 11:25 -14.72833 -48.90088 36131 ft 462 kts 312°
2026-05-05 11:26 -14.68103 -48.94510 36125 ft 462 kts 312°
2026-05-05 11:26 -14.63338 -48.98962 36110 ft 462 kts 312°
2026-05-05 11:27 -14.58567 -49.03416 36119 ft 462 kts 312°
2026-05-05 11:27 -14.53795 -49.07868 36122 ft 462 kts 312°
2026-05-05 11:28 -14.49018 -49.12322 36114 ft 463 kts 312°
2026-05-05 11:28 -14.44236 -49.16778 36111 ft 463 kts 312°
2026-05-05 11:29 -14.39454 -49.21231 36110 ft 463 kts 312°
2026-05-05 11:29 -14.34673 -49.25681 36099 ft 463 kts 312°
2026-05-05 11:30 -14.29916 -49.30107 36095 ft 464 kts 312°
2026-05-05 11:30 -14.25099 -49.34584 36109 ft 463 kts 313°
2026-05-05 11:31 -14.20347 -49.39000 36095 ft 463 kts 313°
2026-05-05 11:31 -14.15559 -49.43446 36101 ft 463 kts 313°
2026-05-05 11:32 -14.10771 -49.47890 36085 ft 463 kts 313°
2026-05-05 11:32 -14.05986 -49.52330 36089 ft 463 kts 313°
2026-05-05 11:33 -14.01186 -49.56758 36092 ft 463 kts 314°
2026-05-05 11:33 -13.96313 -49.61111 36080 ft 464 kts 314°
2026-05-05 11:34 -13.91424 -49.65447 36084 ft 464 kts 314°
2026-05-05 11:34 -13.86539 -49.69791 36084 ft 464 kts 314°
2026-05-05 11:35 -13.81658 -49.74142 36084 ft 464 kts 314°
2026-05-05 11:35 -13.76775 -49.78495 36080 ft 465 kts 314°
2026-05-05 11:36 -13.71892 -49.82846 36069 ft 464 kts 315°
2026-05-05 11:36 -13.67006 -49.87196 36076 ft 464 kts 315°
2026-05-05 11:37 -13.62158 -49.91509 36080 ft 464 kts 315°
2026-05-05 11:37 -13.57277 -49.95851 36075 ft 464 kts 315°
2026-05-05 11:38 -13.52393 -50.00191 36073 ft 464 kts 315°
2026-05-05 11:38 -13.47514 -50.04525 36081 ft 464 kts 315°
2026-05-05 11:39 -13.42628 -50.08863 36075 ft 464 kts 315°
2026-05-05 11:39 -13.37743 -50.13198 36077 ft 464 kts 315°
2026-05-05 11:40 -13.32860 -50.17529 36073 ft 464 kts 315°
2026-05-05 11:40 -13.27972 -50.21862 36070 ft 464 kts 315°
2026-05-05 11:41 -13.23086 -50.26191 36074 ft 464 kts 316°
2026-05-05 11:41 -13.18202 -50.30515 36068 ft 464 kts 316°
2026-05-05 11:42 -13.13315 -50.34840 36068 ft 464 kts 316°
2026-05-05 11:42 -13.08427 -50.39165 36068 ft 464 kts 316°
2026-05-05 11:43 -13.03539 -50.43488 36065 ft 464 kts 316°
2026-05-05 11:43 -12.98652 -50.47808 36066 ft 464 kts 316°
2026-05-05 11:44 -12.93767 -50.52125 36070 ft 464 kts 316°
2026-05-05 11:44 -12.88877 -50.56444 36067 ft 464 kts 316°
2026-05-05 11:45 -12.84816 -50.60028 36069 ft 464 kts 316°
2026-05-05 11:45 -12.79133 -50.65042 36069 ft 464 kts 316°
2026-05-05 11:46 -12.74247 -50.69351 36067 ft 464 kts 316°
2026-05-05 11:46 -12.69359 -50.73658 36072 ft 464 kts 316°
2026-05-05 11:47 -12.65260 -50.77269 36068 ft 464 kts 316°
2026-05-05 11:47 -12.60402 -50.81546 36068 ft 464 kts 316°
2026-05-05 11:48 -12.53058 -50.88008 36064 ft 464 kts 317°
2026-05-05 11:48 -12.48159 -50.92316 36070 ft 464 kts 317°
2026-05-05 11:49 -12.43256 -50.96621 36108 ft 464 kts 317°
2026-05-05 11:49 -12.38353 -51.00929 36076 ft 465 kts 317°
2026-05-05 11:50 -12.33444 -51.05242 36069 ft 466 kts 317°
2026-05-05 11:50 -12.28524 -51.09560 36071 ft 466 kts 317°
2026-05-05 11:51 -12.23601 -51.13879 36073 ft 466 kts 317°
2026-05-05 11:51 -12.18679 -51.18194 36075 ft 466 kts 317°
2026-05-05 11:52 -12.13753 -51.22510 36072 ft 467 kts 317°
2026-05-05 11:52 -12.08857 -51.26800 36072 ft 466 kts 317°
2026-05-05 11:53 -12.03932 -51.31115 36069 ft 466 kts 317°
2026-05-05 11:53 -11.99007 -51.35428 36064 ft 466 kts 317°
2026-05-05 11:54 -11.94079 -51.39741 36068 ft 466 kts 317°
2026-05-05 11:54 -11.89157 -51.44046 36071 ft 466 kts 317°
2026-05-05 11:55 -11.84232 -51.48351 36074 ft 466 kts 317°
2026-05-05 11:55 -11.79311 -51.52652 36069 ft 466 kts 317°
2026-05-05 11:56 -11.74394 -51.56947 36070 ft 465 kts 317°
2026-05-05 11:56 -11.69473 -51.61243 36070 ft 465 kts 317°
2026-05-05 11:57 -11.64558 -51.65532 36071 ft 465 kts 317°
2026-05-05 11:57 -11.59643 -51.69819 36069 ft 465 kts 317°
2026-05-05 11:58 -11.54724 -51.74107 36070 ft 465 kts 317°
2026-05-05 11:58 -11.49804 -51.78394 36066 ft 465 kts 317°
2026-05-05 11:59 -11.44887 -51.82677 36069 ft 465 kts 317°
2026-05-05 11:59 -11.39974 -51.86955 36068 ft 465 kts 317°
2026-05-05 12:00 -11.35058 -51.91234 36066 ft 465 kts 317°
2026-05-05 12:00 -11.30165 -51.95489 36065 ft 465 kts 317°
2026-05-05 12:01 -11.25458 -51.99977 36072 ft 463 kts 311°
2026-05-05 12:01 -11.21102 -52.04810 36053 ft 463 kts 310°
2026-05-05 12:02 -11.16780 -52.09667 36066 ft 463 kts 310°
2026-05-05 12:02 -11.12428 -52.14492 36066 ft 463 kts 310°
2026-05-05 12:03 -11.08044 -52.19307 36067 ft 463 kts 310°
2026-05-05 12:03 -11.03655 -52.24112 36061 ft 464 kts 310°
2026-05-05 12:04 -10.99263 -52.28918 36067 ft 463 kts 310°
2026-05-05 12:04 -10.94872 -52.33721 36065 ft 464 kts 310°
2026-05-05 12:05 -10.90481 -52.38525 36066 ft 463 kts 310°
2026-05-05 12:05 -10.86090 -52.43327 36064 ft 463 kts 310°
2026-05-05 12:06 -10.81701 -52.48123 36061 ft 463 kts 310°
2026-05-05 12:06 -10.77311 -52.52919 36063 ft 463 kts 310°
2026-05-05 12:07 -10.72921 -52.57712 36067 ft 463 kts 310°
2026-05-05 12:07 -10.68537 -52.62497 36056 ft 463 kts 310°
2026-05-05 12:08 -10.64148 -52.67285 36059 ft 463 kts 310°
2026-05-05 12:08 -10.59759 -52.72070 36067 ft 463 kts 310°
2026-05-05 12:09 -10.55365 -52.76859 36057 ft 463 kts 311°
2026-05-05 12:09 -10.50975 -52.81641 36055 ft 463 kts 310°
2026-05-05 12:10 -10.46581 -52.86427 36068 ft 463 kts 311°
2026-05-05 12:10 -10.42186 -52.91210 36065 ft 463 kts 311°
2026-05-05 12:11 -10.37787 -52.95996 36068 ft 463 kts 311°
2026-05-05 12:11 -10.33384 -53.00784 36055 ft 464 kts 311°
2026-05-05 12:12 -10.28978 -53.05574 36061 ft 464 kts 311°
2026-05-05 12:12 -10.24569 -53.10364 36057 ft 464 kts 311°
2026-05-05 12:13 -10.20189 -53.15120 36063 ft 464 kts 311°
2026-05-05 12:13 -10.15772 -53.19916 36062 ft 465 kts 311°
2026-05-05 12:14 -10.11354 -53.24710 36067 ft 465 kts 311°
2026-05-05 12:14 -10.06931 -53.29507 36067 ft 465 kts 311°
2026-05-05 12:15 -10.02510 -53.34300 36066 ft 465 kts 311°
2026-05-05 12:15 -9.98082 -53.39099 36062 ft 466 kts 311°
2026-05-05 12:16 -9.93681 -53.43866 36061 ft 466 kts 311°
2026-05-05 12:16 -9.89219 -53.48698 36064 ft 466 kts 311°
2026-05-05 12:17 -9.84786 -53.53496 36068 ft 466 kts 311°
2026-05-05 12:17 -9.80386 -53.58256 36063 ft 466 kts 311°
2026-05-05 12:18 -9.75941 -53.63063 36064 ft 466 kts 311°
2026-05-05 12:18 -9.71501 -53.67862 36066 ft 466 kts 311°
2026-05-05 12:19 -9.67063 -53.72657 36066 ft 466 kts 311°
2026-05-05 12:19 -9.62629 -53.77447 36063 ft 466 kts 311°
2026-05-05 12:20 -9.58187 -53.82242 36064 ft 466 kts 311°
2026-05-05 12:20 -9.53754 -53.87027 36065 ft 466 kts 311°
2026-05-05 12:21 -9.49319 -53.91810 36066 ft 466 kts 311°
2026-05-05 12:21 -9.44883 -53.96593 36067 ft 465 kts 311°
2026-05-05 12:22 -9.40453 -54.01369 36067 ft 465 kts 312°
2026-05-05 12:22 -9.36022 -54.06143 36068 ft 465 kts 312°
2026-05-05 12:23 -9.31592 -54.10914 36064 ft 465 kts 312°
2026-05-05 12:23 -9.27191 -54.15652 36073 ft 465 kts 312°
2026-05-05 12:24 -9.22760 -54.20421 36072 ft 465 kts 312°
2026-05-05 12:24 -9.18331 -54.25186 36066 ft 465 kts 312°
2026-05-05 12:25 -9.13893 -54.29957 36071 ft 465 kts 312°
2026-05-05 12:25 -9.09460 -54.34722 36073 ft 465 kts 312°
2026-05-05 12:26 -9.05018 -54.39495 36074 ft 466 kts 312°
2026-05-05 12:26 -9.00576 -54.44266 36075 ft 466 kts 312°
2026-05-05 12:27 -8.96131 -54.49039 36072 ft 466 kts 312°
2026-05-05 12:27 -8.91684 -54.53812 36069 ft 467 kts 312°
2026-05-05 12:28 -8.87257 -54.58561 36078 ft 467 kts 312°
2026-05-05 12:28 -8.82804 -54.63336 36078 ft 467 kts 312°
2026-05-05 12:29 -8.78342 -54.68120 36081 ft 467 kts 312°
2026-05-05 12:29 -8.73877 -54.72905 36074 ft 468 kts 312°
2026-05-05 12:30 -8.69413 -54.77687 36080 ft 468 kts 312°
2026-05-05 12:30 -8.64940 -54.82477 36073 ft 468 kts 312°
2026-05-05 12:31 -8.60470 -54.87261 36075 ft 468 kts 312°
2026-05-05 12:31 -8.56004 -54.92039 36068 ft 468 kts 312°
2026-05-05 12:32 -8.51532 -54.96823 36075 ft 468 kts 312°
2026-05-05 12:32 -8.47066 -55.01598 36077 ft 468 kts 313°
2026-05-05 12:33 -8.42609 -55.06362 36073 ft 467 kts 313°
2026-05-05 12:33 -8.38162 -55.11114 36072 ft 467 kts 313°
2026-05-05 12:34 -8.33702 -55.15877 36071 ft 466 kts 313°
2026-05-05 12:34 -8.29246 -55.20636 36070 ft 466 kts 313°
2026-05-05 12:35 -8.24791 -55.25390 36072 ft 466 kts 313°
2026-05-05 12:35 -8.20337 -55.30143 36070 ft 466 kts 313°
2026-05-05 12:36 -8.16635 -55.34092 36071 ft 466 kts 313°
2026-05-05 12:36 -8.11433 -55.39638 36072 ft 465 kts 313°
2026-05-05 12:37 -8.07731 -55.43583 36065 ft 466 kts 313°
2026-05-05 12:37 -8.03272 -55.48335 36074 ft 466 kts 313°
2026-05-05 12:38 -7.98805 -55.53093 36075 ft 467 kts 313°
2026-05-05 12:38 -7.94363 -55.57824 36076 ft 468 kts 313°
2026-05-05 12:39 -7.89878 -55.62597 36072 ft 469 kts 313°
2026-05-05 12:39 -7.85386 -55.67378 36077 ft 470 kts 313°
2026-05-05 12:40 -7.80883 -55.72169 36069 ft 471 kts 313°
2026-05-05 12:40 -7.76364 -55.76974 36081 ft 472 kts 313°
2026-05-05 12:41 -7.71836 -55.81786 36065 ft 474 kts 313°
2026-05-05 12:41 -7.67299 -55.86609 36071 ft 474 kts 313°
2026-05-05 12:42 -7.62756 -55.91435 36065 ft 474 kts 313°
2026-05-05 12:42 -7.58217 -55.96255 36072 ft 474 kts 313°
2026-05-05 12:43 -7.53712 -56.01038 36073 ft 473 kts 314°
2026-05-05 12:43 -7.49181 -56.05847 36071 ft 472 kts 314°
2026-05-05 12:44 -7.44663 -56.10641 36081 ft 472 kts 314°
2026-05-05 12:44 -7.40141 -56.15437 36068 ft 472 kts 314°
2026-05-05 12:45 -7.35626 -56.20226 36073 ft 471 kts 314°
2026-05-05 12:45 -7.31107 -56.25018 36076 ft 472 kts 314°
2026-05-05 12:46 -7.26603 -56.29833 36076 ft 473 kts 312°
2026-05-05 12:46 -7.22291 -56.34833 36076 ft 473 kts 311°
2026-05-05 12:47 -7.18029 -56.39893 36074 ft 474 kts 311°
2026-05-05 12:47 -7.13744 -56.44940 36066 ft 474 kts 311°
2026-05-05 12:48 -7.09437 -56.49971 36070 ft 474 kts 311°
2026-05-05 12:48 -7.05121 -56.54998 36077 ft 474 kts 311°
2026-05-05 12:49 -7.00824 -56.59999 36064 ft 475 kts 311°
2026-05-05 12:49 -6.96509 -56.65021 36068 ft 474 kts 311°
2026-05-05 12:50 -6.92193 -56.70044 36069 ft 474 kts 311°
2026-05-05 12:50 -6.87871 -56.75072 36073 ft 475 kts 311°
2026-05-05 12:51 -6.83553 -56.80094 36075 ft 475 kts 311°
2026-05-05 12:51 -6.79222 -56.85130 36057 ft 476 kts 311°
2026-05-05 12:52 -6.74891 -56.90165 36066 ft 476 kts 311°
2026-05-05 12:52 -6.70554 -56.95204 36060 ft 476 kts 311°
2026-05-05 12:53 -6.66219 -57.00240 36058 ft 477 kts 311°
2026-05-05 12:53 -6.61910 -57.05245 36059 ft 476 kts 311°
2026-05-05 12:54 -6.55402 -57.12799 36057 ft 476 kts 311°
2026-05-05 12:55 -6.51067 -57.17830 36058 ft 476 kts 311°
2026-05-05 12:55 -6.49600 -57.19533 36062 ft 476 kts 311°